When you browse on this site, cookies collect data to enhance your experience and personalize the content and advertising you see.
Visit our Privacy Policy to learn more. By continuing to use the site, you agree to this use of cookies and data.

Hourly Weather Algiers

Today, 12 August, Wednesday

Time Temperature Precipitation Wind Pressure Humidity
00:00 +34°C° 0 mm 3 mps 745 mmHg 32%
01:00 +34°C° 0 mm 3 mps 745 mmHg 32%
02:00 +33°C° 0 mm 3 mps 745 mmHg 32%
03:00 +33°C° 0 mm 3 mps 745 mmHg 32%
04:00 +32°C° 0 mm 5 mps 746 mmHg 41%
05:00 +30°C° 0 mm 6 mps 747 mmHg 50%
06:00 +29°C° 0 mm 8 mps 747 mmHg 59%
07:00 +30°C° 0 mm 6 mps 748 mmHg 59%
08:00 +32°C° 0 mm 4 mps 748 mmHg 58%
09:00 +31°C° 0 mm 3 mps 748 mmHg 58%
10:00 +34°C° 0 mm 3 mps 748 mmHg 53%
11:00 +35°C° 0 mm 3 mps 748 mmHg 49%
12:00 +36°C° 0 mm 3 mps 748 mmHg 44%
13:00 +36°C° 0 mm 4 mps 747 mmHg 45%
14:00 +36°C° 0 mm 4 mps 747 mmHg 47%
15:00 +36°C° 0 mm 5 mps 746 mmHg 49%
16:00 +35°C° 0 mm 5 mps 746 mmHg 50%
17:00 +34°C° 0 mm 4 mps 746 mmHg 51%
18:00 +34°C° 0 mm 4 mps 746 mmHg 52%
19:00 +33°C° 0 mm 3 mps 746 mmHg 54%
20:00 +31°C° 0 mm 3 mps 746 mmHg 55%
21:00 +31°C° 0 mm 3 mps 747 mmHg 57%
22:00 +30°C° 0 mm 3 mps 747 mmHg 63%
23:00 +29°C° 0 mm 3 mps 747 mmHg 70%

Tomorrow, 13 August, Thursday

Time Temperature Precipitation Wind Pressure Humidity
00:00 +28°C° 0 mm 4 mps 747 mmHg 76%
01:00 +27°C° 0 mm 4 mps 747 mmHg 79%
02:00 +27°C° 0 mm 4 mps 747 mmHg 81%
03:00 +27°C° 0 mm 4 mps 747 mmHg 83%
04:00 +27°C° 0 mm 4 mps 747 mmHg 84%
05:00 +27°C° 0 mm 3 mps 748 mmHg 85%
06:00 +27°C° 0 mm 3 mps 748 mmHg 86%
07:00 +28°C° 0 mm 3 mps 748 mmHg 77%
08:00 +30°C° 0 mm 2 mps 748 mmHg 68%
09:00 +32°C° 0 mm 2 mps 748 mmHg 58%
10:00 +34°C° 0 mm 2 mps 748 mmHg 56%
11:00 +34°C° 0 mm 3 mps 748 mmHg 55%
12:00 +35°C° 0 mm 3 mps 748 mmHg 53%
13:00 +34°C° 0 mm 3 mps 748 mmHg 56%
14:00 +33°C° 0 mm 3 mps 747 mmHg 59%
15:00 +31°C° 0 mm 3 mps 747 mmHg 63%
16:00 +33°C° 0 mm 3 mps 747 mmHg 58%
17:00 +32°C° 0 mm 2 mps 748 mmHg 53%
18:00 +34°C° 0 mm 2 mps 748 mmHg 48%
19:00 +32°C° 0 mm 2 mps 748 mmHg 49%
20:00 +31°C° 0 mm 3 mps 748 mmHg 51%
21:00 +31°C° 0 mm 3 mps 748 mmHg 52%
22:00 +30°C° 0 mm 2 mps 748 mmHg 52%
23:00 +30°C° 0 mm 1 mps 748 mmHg 53%

Day after tomorrow, 14 August, Friday

Time Temperature Precipitation Wind Pressure Humidity
00:00 +30°C° 0 mm 1 mps 748 mmHg 53%
01:00 +29°C° 0 mm 1 mps 748 mmHg 54%
02:00 +29°C° 0 mm 1 mps 748 mmHg 54%
03:00 +29°C° 0 mm 1 mps 747 mmHg 54%
04:00 +29°C° 0 mm 1 mps 748 mmHg 56%
05:00 +29°C° 0 mm 1 mps 748 mmHg 58%
06:00 +29°C° 0 mm 1 mps 748 mmHg 61%
07:00 +30°C° 0 mm 1 mps 748 mmHg 56%
08:00 +32°C° 0 mm 2 mps 748 mmHg 52%
09:00 +34°C° 0 mm 2 mps 748 mmHg 47%
10:00 +35°C° 0 mm 2 mps 748 mmHg 47%
11:00 +35°C° 0 mm 2 mps 747 mmHg 47%
12:00 +35°C° 0 mm 3 mps 747 mmHg 47%
13:00 +35°C° 0 mm 3 mps 747 mmHg 46%
14:00 +35°C° 0 mm 4 mps 746 mmHg 46%
15:00 +35°C° 0 mm 5 mps 746 mmHg 45%
16:00 +35°C° 0 mm 4 mps 746 mmHg 47%
17:00 +34°C° 0 mm 3 mps 746 mmHg 49%
18:00 +34°C° 0 mm 2 mps 746 mmHg 51%
19:00 +32°C° 0 mm 2 mps 747 mmHg 51%
20:00 +31°C° 0 mm 2 mps 747 mmHg 50%
21:00 +31°C° 0 mm 2 mps 747 mmHg 50%
22:00 +31°C° 0 mm 2 mps 747 mmHg 48%
23:00 +31°C° 0 mm 3 mps 747 mmHg 45%

15 August, Saturday

Time Temperature Precipitation Wind Pressure Humidity
00:00 +33°C° 0 mm 3 mps 747 mmHg 42%
01:00 +33°C° 0 mm 3 mps 747 mmHg 41%
02:00 +33°C° 0 mm 3 mps 746 mmHg 40%
03:00 +33°C° 0 mm 3 mps 746 mmHg 39%
04:00 +33°C° 0 mm 3 mps 746 mmHg 41%
05:00 +32°C° 0 mm 2 mps 746 mmHg 44%
06:00 +31°C° 0 mm 1 mps 746 mmHg 46%
07:00 +33°C° 0 mm 1 mps 746 mmHg 44%
08:00 +34°C° 0 mm 1 mps 746 mmHg 41%
09:00 +36°C° 0 mm 2 mps 747 mmHg 38%
10:00 +36°C° 0 mm 2 mps 746 mmHg 40%
11:00 +36°C° 0 mm 3 mps 746 mmHg 42%
12:00 +36°C° 0 mm 4 mps 746 mmHg 43%
13:00 +36°C° 0 mm 4 mps 746 mmHg 46%
14:00 +35°C° 0 mm 3 mps 745 mmHg 49%
15:00 +34°C° 0 mm 3 mps 745 mmHg 52%
16:00 +34°C° 0 mm 3 mps 745 mmHg 54%
17:00 +32°C° 0 mm 2 mps 745 mmHg 56%
18:00 +31°C° 0 mm 2 mps 745 mmHg 58%
19:00 +30°C° 0 mm 2 mps 745 mmHg 62%
20:00 +29°C° 0 mm 2 mps 745 mmHg 67%
21:00 +28°C° 0 mm 2 mps 745 mmHg 72%
22:00 +29°C° 0 mm 2 mps 745 mmHg 71%
23:00 +29°C° 0 mm 2 mps 745 mmHg 69%

16 August, Sunday

Time Temperature Precipitation Wind Pressure Humidity
00:00 +29°C° 0 mm 2 mps 745 mmHg 68%
01:00 +28°C° 0 mm 2 mps 745 mmHg 72%
02:00 +27°C° 0 mm 3 mps 745 mmHg 75%
03:00 +26°C° 0 mm 3 mps 745 mmHg 79%
04:00 +27°C° 0 mm 2 mps 745 mmHg 76%
05:00 +27°C° 0 mm 2 mps 746 mmHg 73%
06:00 +27°C° 0 mm 1 mps 746 mmHg 70%
07:00 +29°C° 0 mm 1 mps 746 mmHg 60%
08:00 +31°C° 0 mm 1 mps 746 mmHg 50%
09:00 +33°C° 0 mm 1 mps 747 mmHg 41%
10:00 +34°C° 0 mm 2 mps 746 mmHg 40%
11:00 +34°C° 0 mm 3 mps 746 mmHg 40%
12:00 +35°C° 0 mm 3 mps 746 mmHg 40%
13:00 +34°C° 0 mm 3 mps 746 mmHg 42%
14:00 +33°C° 0 mm 3 mps 745 mmHg 45%
15:00 +33°C° 0 mm 3 mps 745 mmHg 47%
16:00 +31°C° 0 mm 2 mps 745 mmHg 49%
17:00 +31°C° 0 mm 2 mps 745 mmHg 50%
18:00 +30°C° 0 mm 2 mps 745 mmHg 52%
19:00 +30°C° 0 mm 2 mps 745 mmHg 53%
20:00 +29°C° 0 mm 2 mps 745 mmHg 55%
21:00 +29°C° 0 mm 2 mps 745 mmHg 56%
22:00 +29°C° 0 mm 2 mps 745 mmHg 56%
23:00 +28°C° 0 mm 2 mps 745 mmHg 57%

17 August, Monday

Time Temperature Precipitation Wind Pressure Humidity
00:00 +28°C° 0 mm 2 mps 744 mmHg 57%
01:00 +28°C° 0 mm 2 mps 744 mmHg 58%
02:00 +27°C° 0 mm 3 mps 744 mmHg 59%
03:00 +27°C° 0 mm 3 mps 744 mmHg 61%
04:00 +27°C° 0 mm 3 mps 745 mmHg 64%
05:00 +26°C° 0 mm 3 mps 745 mmHg 66%
06:00 +26°C° 0 mm 3 mps 745 mmHg 69%
07:00 +28°C° 0 mm 3 mps 746 mmHg 63%
08:00 +29°C° 0 mm 3 mps 746 mmHg 57%
09:00 +31°C° 0 mm 3 mps 746 mmHg 50%
10:00 +33°C° 0 mm 3 mps 746 mmHg 47%
11:00 +33°C° 0 mm 3 mps 746 mmHg 45%
12:00 +34°C° 0 mm 4 mps 745 mmHg 42%
13:00 +34°C° 0 mm 3 mps 745 mmHg 42%
14:00 +33°C° 0 mm 3 mps 745 mmHg 42%
15:00 +31°C° 0 mm 3 mps 744 mmHg 43%
16:00 +31°C° 0 mm 2 mps 744 mmHg 45%
17:00 +30°C° 0 mm 1 mps 744 mmHg 46%
18:00 +29°C° 0 mm 1 mps 744 mmHg 48%
19:00 +29°C° 0 mm 1 mps 745 mmHg 48%
20:00 +28°C° 0 mm 1 mps 745 mmHg 49%
21:00 +28°C° 0 mm 1 mps 746 mmHg 49%
22:00 +27°C° 0 mm 1 mps 745 mmHg 50%
23:00 +25°C° 0 mm 0 mps 745 mmHg 50%
Show more